CZ-6A DEB, 54415

Orbit data source: Space-Track

CZ-6A DEB, 54415 is space debris in SSO originally from a launch on Fri, 11 Nov 2022 UTC launched from the Taiyaun Space Center, China (TSC). Debris objects in space refer to the collection of defunct objects orbiting the Earth. Examples of debris include non-operational satellites, rocket bodies, and fragments generated from explosions, collisions, or faulty payload assembly.

Loading next visibility...
Identifier
54415, 2022-151EP
Orbit
SSO
Country
Flag of CNCN / PRC
Related business
Manufacturer
SAST
Mission
Spacecraft
Bus & Motor
Unknown
Mass
Unknown
Launch date (UTC)
2022-11-11 (3 years ago)
Launch vehicle
Unknown
Launch site
Taiyaun Space Center, China (TSC)
Object type
Payload
Rocket body
Debris
Shape & HBR
Unknown shape, 0.4 m
Radar Cross Section
Medium (>0.1 m² and <1 m²)

Expand to show TLE details & history
Last TLE update: 13 hours ago

TLE from 13 hours ago
0 CZ-6A DEB
1 54415U 22151EP  25352.53199164  .00000734  00000-0  61514-3 0  9999
2 54415  99.0009 286.3055 0352441 313.1871  44.0318 13.66116797154164
Epoch: 2025-12-18T12:46Z
TLE epoch observation values (Epoch: 2025-12-18T12:46:04.077Z)
Latitude
Longitude
7.40236°
Altitude
833.66 km
Speed
7.527 km/s
True Right ascension
19h 05m 13s
True Declination
0° 00' 00"
Sunlit
Object was in daylight at epoch
Visualization orbit readout
Latitude
Unknown
Longitude
Unknown
Altitude
Unknown
Speed
Unknown
Apparent Right ascension
Unknown
Apparent Declination
Unknown
Sunlit
N/A
Visualization observer readout
Local Sidereal Time
00:38:22
Azimuth
Unknown
Elevation
Unknown
Doppler factor
Unknown
Orbital elements
Apogee altitude
1,271.201 km
Perigee altitude
750.369 km
Semi-major axis
7,388.922 km
Eccentricity
0.03524
Inclination
99.0009°
RAAN
286.3055°
Arg. of periapsis
313.1871°
True anomaly
46.92937°
Mean anomaly
44.0318°
Eccentric anomaly
45.47139°
Mean motion
3.41721 °/min
Orbital period
105.35 mins
BSTAR
0.00061514
Loading maneuver chart data...
Computing Atmospheric mass density...
Loading historical data...
Loading historical data...
Loading historical data...
Loading historical data...
Loading historical data...
Loading historical data...
Loading historical data...

Documentation

Showing up to 5 results
|